Location: Arezzo
(43.4170°N, 11.8830°E)
Time: 20:32:28
(UTC+01:00)

STARLINK-2709 - Pass Details

Date: 28 October 2021
Orbit: 546 x 548 km, 53.1° (Epoch: 01 December)

Event Time Altitude Azimuth Distance (km) Brightness Sun altitude
Exits shadow 06:46:58 14° 260° (W) 1,585 5.4 -10.7°
Maximum altitude 06:50:21 47° 332° (NNW) 729 4.0 -10.1°
Drops below altitude 10° 06:54:22 10° 47° (NE) 1,822 6.8 -9.4°
Sets 06:56:40 0° 54° (NE) 2,718 7.9 -9.0°
